Location: Ariel
(45.9570°N, 122.5700°W)
Time: 16:35:25
(UTC-08:00)

Transit 4A - Pass Details

Date: 02 November 2020
Orbit: 862 x 982 km, 66.8° (Epoch: 03 December)

Event Time Altitude Azimuth Distance (km) Brightness Sun altitude
Rises 18:32:26 0° 311° (NW) 3,681 11.7 -17.5°
Reaches altitude 10° 18:37:42 10° 347° (NNW) 2,744 10.5 -18.4°
Maximum altitude 18:39:14 11° 1° (N) 2,684 10.3 -18.7°
Drops below altitude 10° 18:40:46 10° 15° (NNE) 2,745 10.2 -18.9°
Enters shadow 18:42:29 - 29° (NNE) 2,946 10.2 -19.2°
